N5385J KROC-CYOW

Flight info

Callsign N5385J
Flight time N/A
Altitude 3500
Route MAGEN DCT ART
Aircraft C172/L-SFG/C

Departure

Time 2026-04-28 00:42
Airport Frederick Douglass Greater Rochester International Airport (KROC)

Arrival

Time N/A
Airport Ottawa Macdonald-Cartier International Airport (CYOW)
Time Latitude Longitude Altitude Speed Heading
2026-04-28 00:31 43.11603 -77.66520 541 ft 0 kts 323°
2026-04-28 00:38 43.11616 -77.66531 541 ft 9 kts 329°
2026-04-28 00:38 43.11700 -77.66587 542 ft 15 kts 335°
2026-04-28 00:39 43.11724 -77.66705 543 ft 16 kts 244°
2026-04-28 00:39 43.11673 -77.66850 543 ft 18 kts 245°
2026-04-28 00:39 43.11616 -77.67011 543 ft 19 kts 245°
2026-04-28 00:39 43.11557 -77.67181 541 ft 12 kts 272°
2026-04-28 00:40 43.11564 -77.67204 541 ft 0 kts 338°
2026-04-28 00:41 43.11588 -77.67222 541 ft 9 kts 333°
2026-04-28 00:41 43.11656 -77.67149 542 ft 25 kts 63°
2026-04-28 00:41 43.11811 -77.66718 551 ft 71 kts 62°
2026-04-28 00:41 43.12088 -77.66119 716 ft 76 kts 57°
2026-04-28 00:42 43.12412 -77.65548 882 ft 79 kts 52°
2026-04-28 00:42 43.12726 -77.64963 1073 ft 76 kts 71°
2026-04-28 00:42 43.12837 -77.64284 1257 ft 70 kts 95°
2026-04-28 00:42 43.12838 -77.63628 1426 ft 70 kts 98°
2026-04-28 00:43 43.12852 -77.62942 1588 ft 73 kts 93°
2026-04-28 00:43 43.12918 -77.62280 1771 ft 71 kts 96°
2026-04-28 00:43 43.12933 -77.61610 1914 ft 74 kts 95°
2026-04-28 00:43 43.13024 -77.60955 2137 ft 69 kts 95°
2026-04-28 00:44 43.13104 -77.60287 2301 ft 72 kts 90°
2026-04-28 00:44 43.13166 -77.59596 2452 ft 73 kts 97°
2026-04-28 00:44 43.13206 -77.58925 2623 ft 75 kts 93°
2026-04-28 00:44 43.13206 -77.58290 2838 ft 60 kts 116°
2026-04-28 00:45 43.12970 -77.57747 2931 ft 66 kts 133°
2026-04-28 00:45 43.12712 -77.57269 3088 ft 69 kts 123°
2026-04-28 00:45 43.12719 -77.56589 3285 ft 72 kts 93°
2026-04-28 00:45 43.12779 -77.55875 3368 ft 79 kts 94°
2026-04-28 00:46 43.12856 -77.55177 3563 ft 74 kts 91°
2026-04-28 00:46 43.12954 -77.54469 3690 ft 77 kts 91°
2026-04-28 00:46 43.12973 -77.53762 3794 ft 79 kts 103°
2026-04-28 00:46 43.13022 -77.52954 3796 ft 92 kts 89°
2026-04-28 00:47 43.13198 -77.52035 3690 ft 101 kts 84°
2026-04-28 00:47 43.13452 -77.51144 3634 ft 106 kts 77°
2026-04-28 00:47 43.13659 -77.50197 3557 ft 101 kts 90°
2026-04-28 00:47 43.13766 -77.49271 3577 ft 93 kts 93°
2026-04-28 00:48 43.13826 -77.48356 3509 ft 97 kts 90°
2026-04-28 00:48 43.13934 -77.47465 3498 ft 93 kts 97°
2026-04-28 00:48 43.13960 -77.46528 3396 ft 95 kts 97°
2026-04-28 00:48 43.14007 -77.45659 3395 ft 92 kts 98°
2026-04-28 00:49 43.14045 -77.44784 3379 ft 89 kts 97°
2026-04-28 00:49 43.14109 -77.43919 3344 ft 94 kts 95°
2026-04-28 00:49 43.14169 -77.43066 3356 ft 91 kts 98°
2026-04-28 00:49 43.14232 -77.42189 3403 ft 93 kts 94°
2026-04-28 00:50 43.14297 -77.41289 3524 ft 97 kts 95°
2026-04-28 00:50 43.14354 -77.40344 3526 ft 99 kts 95°
2026-04-28 00:50 43.14418 -77.39399 3524 ft 98 kts 95°
2026-04-28 00:50 43.14482 -77.38467 3534 ft 97 kts 95°
2026-04-28 00:51 43.14542 -77.37547 3535 ft 96 kts 95°
2026-04-28 00:51 43.14599 -77.36629 3534 ft 96 kts 95°
2026-04-28 00:51 43.14642 -77.35717 3529 ft 96 kts 99°
2026-04-28 00:51 43.14612 -77.34785 3537 ft 99 kts 103°
2026-04-28 00:52 43.14567 -77.33809 3534 ft 105 kts 103°
2026-04-28 00:52 43.14518 -77.32816 3533 ft 105 kts 103°
2026-04-28 00:52 43.14465 -77.31821 3529 ft 103 kts 103°
2026-04-28 00:52 43.14411 -77.30843 3531 ft 101 kts 103°
2026-04-28 00:53 43.14359 -77.29887 3539 ft 100 kts 104°
2026-04-28 00:53 43.14314 -77.28937 3525 ft 101 kts 103°
2026-04-28 00:53 43.14276 -77.27985 3536 ft 99 kts 103°
2026-04-28 00:53 43.14239 -77.27037 3542 ft 98 kts 102°
2026-04-28 00:54 43.14191 -77.26093 3537 ft 99 kts 103°
2026-04-28 00:54 43.14142 -77.25142 3543 ft 99 kts 104°
2026-04-28 00:54 43.14102 -77.24198 3528 ft 100 kts 103°
2026-04-28 00:54 43.14055 -77.23257 3536 ft 99 kts 103°
2026-04-28 00:55 43.14009 -77.22322 3534 ft 98 kts 104°